Year,Month,Day,Hour,Minute,Value (Times are PST for temperature in C)
2017,08,21,00,00,16.60
2017,08,21,00,01,16.60
2017,08,21,00,02,16.70
2017,08,21,00,03,16.60
2017,08,21,00,04,16.70
2017,08,21,00,05,16.70
2017,08,21,00,06,16.70
2017,08,21,00,07,16.70
2017,08,21,00,08,16.70
2017,08,21,00,09,16.70
2017,08,21,00,10,16.70
2017,08,21,00,11,16.70
2017,08,21,00,12,16.70
2017,08,21,00,13,16.70
2017,08,21,00,14,16.60
2017,08,21,00,15,16.60
2017,08,21,00,16,16.60
2017,08,21,00,17,16.60
2017,08,21,00,18,16.60
2017,08,21,00,19,16.60
2017,08,21,00,20,16.60
2017,08,21,00,21,16.50
2017,08,21,00,22,16.50
2017,08,21,00,23,16.50
2017,08,21,00,24,16.50
2017,08,21,00,25,16.40
2017,08,21,00,26,16.40
2017,08,21,00,27,16.40
2017,08,21,00,28,16.40
2017,08,21,00,29,16.40
2017,08,21,00,30,16.40
2017,08,21,00,31,16.40
2017,08,21,00,32,16.40
2017,08,21,00,33,16.40
2017,08,21,00,34,16.30
2017,08,21,00,35,16.30
2017,08,21,00,36,16.30
2017,08,21,00,37,16.30
2017,08,21,00,38,16.20
2017,08,21,00,39,16.20
2017,08,21,00,40,16.20
2017,08,21,00,41,16.20
2017,08,21,00,42,16.10
2017,08,21,00,43,16.10
2017,08,21,00,44,16.10
2017,08,21,00,45,16.10
2017,08,21,00,46,16.10
2017,08,21,00,47,16.00
2017,08,21,00,48,16.00
2017,08,21,00,49,16.00
2017,08,21,00,50,16.00
2017,08,21,00,51,16.00
2017,08,21,00,52,16.00
2017,08,21,00,53,16.00
2017,08,21,00,54,16.00
2017,08,21,00,55,16.00
2017,08,21,00,56,16.00
2017,08,21,00,57,16.00
2017,08,21,00,58,16.00
2017,08,21,00,59,16.00
2017,08,21,01,00,16.00
2017,08,21,01,01,16.00
2017,08,21,01,02,16.00
2017,08,21,01,03,16.00
2017,08,21,01,04,16.00
2017,08,21,01,05,16.00
2017,08,21,01,06,16.00
2017,08,21,01,07,16.00
2017,08,21,01,08,16.00
2017,08,21,01,09,16.00
2017,08,21,01,10,15.90
2017,08,21,01,11,15.90
2017,08,21,01,12,15.90
2017,08,21,01,13,15.90
2017,08,21,01,14,15.90
2017,08,21,01,15,15.90
2017,08,21,01,16,15.90
2017,08,21,01,17,15.90
2017,08,21,01,18,15.80
2017,08,21,01,19,15.80
2017,08,21,01,20,15.80
2017,08,21,01,21,15.80
2017,08,21,01,22,15.80
2017,08,21,01,23,15.80
2017,08,21,01,24,15.70
2017,08,21,01,25,15.70
2017,08,21,01,26,15.70
2017,08,21,01,27,15.70
2017,08,21,01,28,15.60
2017,08,21,01,29,15.60
2017,08,21,01,30,15.60
2017,08,21,01,31,15.60
2017,08,21,01,32,15.60
2017,08,21,01,33,15.60
2017,08,21,01,34,15.50
2017,08,21,01,35,15.50
2017,08,21,01,36,15.50
2017,08,21,01,37,15.40
2017,08,21,01,38,15.40
2017,08,21,01,39,15.40
2017,08,21,01,40,15.40
2017,08,21,01,41,15.40
2017,08,21,01,42,15.40
2017,08,21,01,43,15.40
2017,08,21,01,44,15.40
2017,08,21,01,45,15.40
2017,08,21,01,46,15.30
2017,08,21,01,47,15.30
2017,08,21,01,48,15.30
2017,08,21,01,49,15.30
2017,08,21,01,50,15.30
2017,08,21,01,51,15.30
2017,08,21,01,52,15.30
2017,08,21,01,53,15.30
2017,08,21,01,54,15.20
2017,08,21,01,55,15.20
2017,08,21,01,56,15.20
2017,08,21,01,57,15.20
2017,08,21,01,58,15.20
2017,08,21,01,59,15.20
2017,08,21,02,00,15.20
2017,08,21,02,01,15.20
2017,08,21,02,02,15.20
2017,08,21,02,03,15.20
2017,08,21,02,04,15.10
2017,08,21,02,05,15.10
2017,08,21,02,06,15.10
2017,08,21,02,07,15.10
2017,08,21,02,08,15.10
2017,08,21,02,09,15.00
2017,08,21,02,10,15.00
2017,08,21,02,11,15.00
2017,08,21,02,12,15.00
2017,08,21,02,13,14.90
2017,08,21,02,14,14.90
2017,08,21,02,15,14.90
2017,08,21,02,16,14.90
2017,08,21,02,17,14.90
2017,08,21,02,18,14.80
2017,08,21,02,19,14.80
2017,08,21,02,20,14.80
2017,08,21,02,21,14.80
2017,08,21,02,22,14.80
2017,08,21,02,23,14.80
2017,08,21,02,24,14.80
2017,08,21,02,25,14.70
2017,08,21,02,26,14.70
2017,08,21,02,27,14.70
2017,08,21,02,28,14.80
2017,08,21,02,29,14.70
2017,08,21,02,30,14.70
2017,08,21,02,31,14.70
2017,08,21,02,32,14.70
2017,08,21,02,33,14.70
2017,08,21,02,34,14.70
2017,08,21,02,35,14.70
2017,08,21,02,36,14.70
2017,08,21,02,37,14.70
2017,08,21,02,38,14.70
2017,08,21,02,39,14.70
2017,08,21,02,40,14.70
2017,08,21,02,41,14.70
2017,08,21,02,42,14.70
2017,08,21,02,43,14.70
2017,08,21,02,44,14.70
2017,08,21,02,45,14.70
2017,08,21,02,46,14.70
2017,08,21,02,47,14.70
2017,08,21,02,48,14.70
2017,08,21,02,49,14.70
2017,08,21,02,50,14.70
2017,08,21,02,51,14.70
2017,08,21,02,52,14.70
2017,08,21,02,53,14.70
2017,08,21,02,54,14.70
2017,08,21,02,55,14.70
2017,08,21,02,56,14.70
2017,08,21,02,57,14.70
2017,08,21,02,58,14.70
2017,08,21,02,59,14.70
2017,08,21,03,00,14.70
2017,08,21,03,01,14.70
2017,08,21,03,02,14.70
2017,08,21,03,03,14.70
2017,08,21,03,04,14.70
2017,08,21,03,05,14.70
2017,08,21,03,06,14.70
2017,08,21,03,07,14.70
2017,08,21,03,08,14.70
2017,08,21,03,09,14.70
2017,08,21,03,10,14.80
2017,08,21,03,11,14.80
2017,08,21,03,12,14.80
2017,08,21,03,13,14.80
2017,08,21,03,14,14.80
2017,08,21,03,15,14.80
2017,08,21,03,16,14.80
2017,08,21,03,17,14.90
2017,08,21,03,18,14.90
2017,08,21,03,19,14.90
2017,08,21,03,20,14.90
2017,08,21,03,21,14.90
2017,08,21,03,22,15.00
2017,08,21,03,23,15.00
2017,08,21,03,24,15.00
2017,08,21,03,25,15.00
2017,08,21,03,26,15.10
2017,08,21,03,27,15.10
2017,08,21,03,28,15.10
2017,08,21,03,29,15.10
2017,08,21,03,30,15.10
2017,08,21,03,31,15.10
2017,08,21,03,32,15.10
2017,08,21,03,33,15.10
2017,08,21,03,34,15.10
2017,08,21,03,35,15.10
2017,08,21,03,36,15.10
2017,08,21,03,37,15.10
2017,08,21,03,38,15.10
2017,08,21,03,39,15.10
2017,08,21,03,40,15.20
2017,08,21,03,41,15.20
2017,08,21,03,42,15.20
2017,08,21,03,43,15.20
2017,08,21,03,44,15.20
2017,08,21,03,45,15.20
2017,08,21,03,46,15.20
2017,08,21,03,47,15.20
2017,08,21,03,48,15.20
2017,08,21,03,49,15.20
2017,08,21,03,50,15.20
2017,08,21,03,51,15.20
2017,08,21,03,52,15.20
2017,08,21,03,53,15.20
2017,08,21,03,54,15.20
2017,08,21,03,55,15.20
2017,08,21,03,56,15.20
2017,08,21,03,57,15.10
2017,08,21,03,58,15.10
2017,08,21,03,59,15.10
2017,08,21,04,00,15.10
2017,08,21,04,01,15.10
2017,08,21,04,02,15.10
2017,08,21,04,03,15.10
2017,08,21,04,04,15.10
2017,08,21,04,05,15.10
2017,08,21,04,06,15.10
2017,08,21,04,07,15.10
2017,08,21,04,08,15.10
2017,08,21,04,09,15.10
2017,08,21,04,10,15.10
2017,08,21,04,11,15.10
2017,08,21,04,12,15.10
2017,08,21,04,13,15.10
2017,08,21,04,14,15.10
2017,08,21,04,15,15.10
2017,08,21,04,16,15.10
2017,08,21,04,17,15.00
2017,08,21,04,18,15.00
2017,08,21,04,19,15.00
2017,08,21,04,20,15.00
2017,08,21,04,21,15.00
2017,08,21,04,22,14.90
2017,08,21,04,23,14.90
2017,08,21,04,24,14.90
2017,08,21,04,25,14.80
2017,08,21,04,26,14.80
2017,08,21,04,27,14.70
2017,08,21,04,28,14.70
2017,08,21,04,29,14.60
2017,08,21,04,30,14.60
2017,08,21,04,31,14.60
2017,08,21,04,32,14.50
2017,08,21,04,33,14.50
2017,08,21,04,34,14.40
2017,08,21,04,35,14.40
2017,08,21,04,36,14.30
2017,08,21,04,37,14.30
2017,08,21,04,38,14.30
2017,08,21,04,39,14.30
2017,08,21,04,40,14.30
2017,08,21,04,41,14.20
2017,08,21,04,42,14.20
2017,08,21,04,43,14.20
2017,08,21,04,44,14.20
2017,08,21,04,45,14.20
2017,08,21,04,46,14.20
2017,08,21,04,47,14.20
2017,08,21,04,48,14.20
2017,08,21,04,49,14.20
2017,08,21,04,50,14.30
2017,08,21,04,51,14.30
2017,08,21,04,52,14.30
2017,08,21,04,53,14.40
2017,08,21,04,54,14.40
2017,08,21,04,55,14.40
2017,08,21,04,56,14.40
2017,08,21,04,57,14.40
2017,08,21,04,58,14.40
2017,08,21,04,59,14.40
2017,08,21,05,00,14.40
2017,08,21,05,01,14.40
2017,08,21,05,02,14.30
2017,08,21,05,03,14.30
2017,08,21,05,04,14.30
2017,08,21,05,05,14.30
2017,08,21,05,06,14.30
2017,08,21,05,07,14.20
2017,08,21,05,08,14.20
2017,08,21,05,09,14.20
2017,08,21,05,10,14.20
2017,08,21,05,11,14.20
2017,08,21,05,12,14.10
2017,08,21,05,13,14.10
2017,08,21,05,14,14.10
2017,08,21,05,15,14.10
2017,08,21,05,16,14.10
2017,08,21,05,17,14.00
2017,08,21,05,18,14.00
2017,08,21,05,19,14.00
2017,08,21,05,20,14.00
2017,08,21,05,21,13.90
2017,08,21,05,22,13.90
2017,08,21,05,23,13.90
2017,08,21,05,24,13.90
2017,08,21,05,25,13.90
2017,08,21,05,26,13.90
2017,08,21,05,27,13.80
2017,08,21,05,28,13.80
2017,08,21,05,29,13.80
2017,08,21,05,30,13.80
2017,08,21,05,31,13.80
2017,08,21,05,32,13.80
2017,08,21,05,33,13.80
2017,08,21,05,34,13.80
2017,08,21,05,35,13.80
2017,08,21,05,36,13.80
2017,08,21,05,37,13.80
2017,08,21,05,38,13.70
2017,08,21,05,39,13.70
2017,08,21,05,40,13.70
2017,08,21,05,41,13.70
2017,08,21,05,42,13.70
2017,08,21,05,43,13.70
2017,08,21,05,44,13.70
2017,08,21,05,45,13.70
2017,08,21,05,46,13.70
2017,08,21,05,47,13.70
2017,08,21,05,48,13.70
2017,08,21,05,49,13.70
2017,08,21,05,50,13.70
2017,08,21,05,51,13.70
2017,08,21,05,52,13.60
2017,08,21,05,53,13.60
2017,08,21,05,54,13.60
2017,08,21,05,55,13.60
2017,08,21,05,56,13.60
2017,08,21,05,57,13.60
2017,08,21,05,58,13.60
2017,08,21,05,59,13.60
2017,08,21,06,00,13.60
2017,08,21,06,01,13.50
2017,08,21,06,02,13.50
2017,08,21,06,03,13.50
2017,08,21,06,04,13.50
2017,08,21,06,05,13.50
2017,08,21,06,06,13.50
2017,08,21,06,07,13.40
2017,08,21,06,08,13.40
2017,08,21,06,09,13.40
2017,08,21,06,10,13.40
2017,08,21,06,11,13.40
2017,08,21,06,12,13.40
2017,08,21,06,13,13.40
2017,08,21,06,14,13.40
2017,08,21,06,15,13.40
2017,08,21,06,16,13.40
2017,08,21,06,17,13.40
2017,08,21,06,18,13.40
2017,08,21,06,19,13.40
2017,08,21,06,20,13.40
2017,08,21,06,21,13.40
2017,08,21,06,22,13.40
2017,08,21,06,23,13.40
2017,08,21,06,24,13.40
2017,08,21,06,25,13.40
2017,08,21,06,26,13.40
2017,08,21,06,27,13.40
2017,08,21,06,28,13.40
2017,08,21,06,29,13.40
2017,08,21,06,30,13.40
2017,08,21,06,31,13.40
2017,08,21,06,32,13.40
2017,08,21,06,33,13.40
2017,08,21,06,34,13.40
2017,08,21,06,35,13.40
2017,08,21,06,36,13.40
2017,08,21,06,37,13.40
2017,08,21,06,38,13.40
2017,08,21,06,39,13.40
2017,08,21,06,40,13.40
2017,08,21,06,41,13.50
2017,08,21,06,42,13.50
2017,08,21,06,43,13.50
2017,08,21,06,44,13.50
2017,08,21,06,45,13.50
2017,08,21,06,46,13.50
2017,08,21,06,47,13.50
2017,08,21,06,48,13.50
2017,08,21,06,49,13.60
2017,08,21,06,50,13.60
2017,08,21,06,51,13.60
2017,08,21,06,52,13.60
2017,08,21,06,53,13.60
2017,08,21,06,54,13.60
2017,08,21,06,55,13.60
2017,08,21,06,56,13.60
2017,08,21,06,57,13.60
2017,08,21,06,58,13.60
2017,08,21,06,59,13.60
2017,08,21,07,00,13.70
2017,08,21,07,01,13.70
2017,08,21,07,02,13.70
2017,08,21,07,03,13.70
2017,08,21,07,04,13.80
2017,08,21,07,05,13.80
2017,08,21,07,06,13.80
2017,08,21,07,07,13.80
2017,08,21,07,08,13.80
2017,08,21,07,09,13.90
2017,08,21,07,10,13.90
2017,08,21,07,11,13.90
2017,08,21,07,12,13.90
2017,08,21,07,13,13.90
2017,08,21,07,14,13.90
2017,08,21,07,15,13.90
2017,08,21,07,16,13.90
2017,08,21,07,17,13.90
2017,08,21,07,18,13.90
2017,08,21,07,19,13.90
2017,08,21,07,20,13.90
2017,08,21,07,21,14.00
2017,08,21,07,22,14.00
2017,08,21,07,23,14.00
2017,08,21,07,24,14.00
2017,08,21,07,25,14.00
2017,08,21,07,26,14.10
2017,08,21,07,27,14.10
2017,08,21,07,28,14.10
2017,08,21,07,29,14.10
2017,08,21,07,30,14.20
2017,08,21,07,31,14.20
2017,08,21,07,32,14.20
2017,08,21,07,33,14.20
2017,08,21,07,34,14.20
2017,08,21,07,35,14.30
2017,08,21,07,36,14.30
2017,08,21,07,37,14.30
2017,08,21,07,38,14.30
2017,08,21,07,39,14.30
2017,08,21,07,40,14.40
2017,08,21,07,41,14.40
2017,08,21,07,42,14.40
2017,08,21,07,43,14.50
2017,08,21,07,44,14.50
2017,08,21,07,45,14.50
2017,08,21,07,46,14.60
2017,08,21,07,47,14.60
2017,08,21,07,48,14.70
2017,08,21,07,49,14.70
2017,08,21,07,50,14.70
2017,08,21,07,51,14.80
2017,08,21,07,52,14.80
2017,08,21,07,53,14.90
2017,08,21,07,54,14.90
2017,08,21,07,55,15.00
2017,08,21,07,56,15.00
2017,08,21,07,57,15.10
2017,08,21,07,58,15.10
2017,08,21,07,59,15.20
2017,08,21,08,00,15.20
2017,08,21,08,01,15.20
2017,08,21,08,02,15.30
2017,08,21,08,03,15.30
2017,08,21,08,04,15.30
2017,08,21,08,05,15.30
2017,08,21,08,06,15.30
2017,08,21,08,07,15.30
2017,08,21,08,08,15.40
2017,08,21,08,09,15.40
2017,08,21,08,10,15.40
2017,08,21,08,11,15.50
2017,08,21,08,12,15.50
2017,08,21,08,13,15.60
2017,08,21,08,14,15.60
2017,08,21,08,15,15.60
2017,08,21,08,16,15.60
2017,08,21,08,17,15.60
2017,08,21,08,18,15.50
2017,08,21,08,19,15.50
2017,08,21,08,20,15.50
2017,08,21,08,21,15.50
2017,08,21,08,22,15.50
2017,08,21,08,23,15.50
2017,08,21,08,24,15.40
2017,08,21,08,25,15.40
2017,08,21,08,26,15.40
2017,08,21,08,27,15.40
2017,08,21,08,28,15.40
2017,08,21,08,29,15.40
2017,08,21,08,30,15.40
2017,08,21,08,31,15.40
2017,08,21,08,32,15.40
2017,08,21,08,33,15.50
2017,08,21,08,34,15.50
2017,08,21,08,35,15.50
2017,08,21,08,36,15.50
2017,08,21,08,37,15.50
2017,08,21,08,38,15.50
2017,08,21,08,39,15.50
2017,08,21,08,40,15.50
2017,08,21,08,41,15.60
2017,08,21,08,42,15.60
2017,08,21,08,43,15.60
2017,08,21,08,44,15.70
2017,08,21,08,45,15.70
2017,08,21,08,46,15.70
2017,08,21,08,47,15.80
2017,08,21,08,48,15.80
2017,08,21,08,49,15.90
2017,08,21,08,50,15.90
2017,08,21,08,51,15.90
2017,08,21,08,52,16.00
2017,08,21,08,53,16.10
2017,08,21,08,54,16.10
2017,08,21,08,55,16.20
2017,08,21,08,56,16.20
2017,08,21,08,57,16.20
2017,08,21,08,58,16.30
2017,08,21,08,59,16.30
2017,08,21,09,00,16.40
2017,08,21,09,01,16.50
2017,08,21,09,02,16.50
2017,08,21,09,03,16.60
2017,08,21,09,04,16.70
2017,08,21,09,05,16.70
2017,08,21,09,06,16.80
2017,08,21,09,07,16.80
2017,08,21,09,08,16.90
2017,08,21,09,09,17.00
2017,08,21,09,10,17.10
2017,08,21,09,11,17.10
2017,08,21,09,12,17.20
2017,08,21,09,13,17.20
2017,08,21,09,14,17.20
2017,08,21,09,15,17.30
2017,08,21,09,16,17.30
2017,08,21,09,17,17.30
2017,08,21,09,18,17.20
2017,08,21,09,19,17.20
2017,08,21,09,20,17.20
2017,08,21,09,21,17.10
2017,08,21,09,22,17.10
2017,08,21,09,23,17.00
2017,08,21,09,24,17.00
2017,08,21,09,25,17.00
2017,08,21,09,26,16.90
2017,08,21,09,27,16.90
2017,08,21,09,28,16.90
2017,08,21,09,29,16.80
2017,08,21,09,30,16.80
2017,08,21,09,31,16.80
2017,08,21,09,32,16.80
2017,08,21,09,33,16.70
2017,08,21,09,34,16.70
2017,08,21,09,35,16.70
2017,08,21,09,36,16.70
2017,08,21,09,37,16.70
2017,08,21,09,38,16.60
2017,08,21,09,39,16.60
2017,08,21,09,40,16.60
2017,08,21,09,41,16.60
2017,08,21,09,42,16.60
2017,08,21,09,43,16.60
2017,08,21,09,44,16.60
2017,08,21,09,45,16.60
2017,08,21,09,46,16.60
2017,08,21,09,47,16.60
2017,08,21,09,48,16.60
2017,08,21,09,49,16.60
2017,08,21,09,50,16.60
2017,08,21,09,51,16.60
2017,08,21,09,52,16.60
2017,08,21,09,53,16.60
2017,08,21,09,54,16.70
2017,08,21,09,55,16.70
2017,08,21,09,56,16.70
2017,08,21,09,57,16.80
2017,08,21,09,58,16.80
2017,08,21,09,59,16.80
2017,08,21,10,00,16.80
2017,08,21,10,01,16.80
2017,08,21,10,02,16.90
2017,08,21,10,03,16.90
2017,08,21,10,04,16.90
2017,08,21,10,05,16.90
2017,08,21,10,06,16.90
2017,08,21,10,07,17.00
2017,08,21,10,08,17.00
2017,08,21,10,09,17.00
2017,08,21,10,10,17.00
2017,08,21,10,11,17.00
2017,08,21,10,12,17.00
2017,08,21,10,13,17.00
2017,08,21,10,14,17.00
2017,08,21,10,15,17.00
2017,08,21,10,16,16.90
2017,08,21,10,17,16.90
2017,08,21,10,18,16.90
2017,08,21,10,19,16.90
2017,08,21,10,20,16.90
2017,08,21,10,21,16.90
2017,08,21,10,22,16.80
2017,08,21,10,23,16.80
2017,08,21,10,24,16.80
2017,08,21,10,25,16.80
2017,08,21,10,26,16.80
2017,08,21,10,27,16.80
2017,08,21,10,28,16.70
2017,08,21,10,29,16.70
2017,08,21,10,30,16.70
2017,08,21,10,31,16.70
2017,08,21,10,32,16.60
2017,08,21,10,33,16.60
2017,08,21,10,34,16.60
2017,08,21,10,35,16.50
2017,08,21,10,36,16.50
2017,08,21,10,37,16.50
2017,08,21,10,38,16.50
2017,08,21,10,39,16.50
2017,08,21,10,40,16.50
2017,08,21,10,41,16.50
2017,08,21,10,42,16.50
2017,08,21,10,43,16.60
2017,08,21,10,44,16.60
2017,08,21,10,45,16.60
2017,08,21,10,46,16.70
2017,08,21,10,47,16.70
2017,08,21,10,48,16.70
2017,08,21,10,49,16.70
2017,08,21,10,50,16.80
2017,08,21,10,51,16.80
2017,08,21,10,52,16.80
2017,08,21,10,53,16.90
2017,08,21,10,54,16.90
2017,08,21,10,55,17.00
2017,08,21,10,56,17.00
2017,08,21,10,57,17.10
2017,08,21,10,58,17.20
2017,08,21,10,59,17.20
2017,08,21,11,00,17.30
2017,08,21,11,01,17.40
2017,08,21,11,02,17.50
2017,08,21,11,03,17.60
2017,08,21,11,04,17.60
2017,08,21,11,05,17.70
2017,08,21,11,06,17.80
2017,08,21,11,07,17.90
2017,08,21,11,08,18.00
2017,08,21,11,09,18.00
2017,08,21,11,10,18.10
2017,08,21,11,11,18.20
2017,08,21,11,12,18.20
2017,08,21,11,13,18.30
2017,08,21,11,14,18.30
2017,08,21,11,15,18.30
2017,08,21,11,16,18.30
2017,08,21,11,17,18.20
2017,08,21,11,18,18.20
2017,08,21,11,19,18.10
2017,08,21,11,20,18.00
2017,08,21,11,21,18.00
2017,08,21,11,22,18.00
2017,08,21,11,23,18.00
2017,08,21,11,24,18.00
2017,08,21,11,25,18.00
2017,08,21,11,26,18.00
2017,08,21,11,27,18.00
2017,08,21,11,28,18.00
2017,08,21,11,29,18.00
2017,08,21,11,30,18.00
2017,08,21,11,31,18.00
2017,08,21,11,32,18.00
2017,08,21,11,33,17.90
2017,08,21,11,34,17.90
2017,08,21,11,35,17.90
2017,08,21,11,36,17.90
2017,08,21,11,37,17.90
2017,08,21,11,38,17.90
2017,08,21,11,39,18.00
2017,08,21,11,40,18.00
2017,08,21,11,41,18.00
2017,08,21,11,42,18.00
2017,08,21,11,43,18.00
2017,08,21,11,44,18.00
2017,08,21,11,45,18.10
2017,08,21,11,46,18.10
2017,08,21,11,47,18.20
2017,08,21,11,48,18.30
2017,08,21,11,49,18.40
2017,08,21,11,50,18.50
2017,08,21,11,51,18.50
2017,08,21,11,52,18.60
2017,08,21,11,53,18.60
2017,08,21,11,54,18.60
2017,08,21,11,55,18.60
2017,08,21,11,56,18.60
2017,08,21,11,57,18.60
2017,08,21,11,58,18.60
2017,08,21,11,59,18.70
2017,08,21,12,00,18.70
2017,08,21,12,01,18.80
2017,08,21,12,02,18.80
2017,08,21,12,03,18.80
2017,08,21,12,04,18.90
2017,08,21,12,05,19.00
2017,08,21,12,06,19.10
2017,08,21,12,07,19.20
2017,08,21,12,08,19.30
2017,08,21,12,09,19.40
2017,08,21,12,10,19.50
2017,08,21,12,11,19.60
2017,08,21,12,12,19.70
2017,08,21,12,13,19.80
2017,08,21,12,14,19.80
2017,08,21,12,15,19.90
2017,08,21,12,16,19.90
2017,08,21,12,17,20.00
2017,08,21,12,18,19.90
2017,08,21,12,19,19.90
2017,08,21,12,20,19.90
2017,08,21,12,21,19.80
2017,08,21,12,22,19.90
2017,08,21,12,23,19.90
2017,08,21,12,24,19.90
2017,08,21,12,25,20.00
2017,08,21,12,26,20.00
2017,08,21,12,27,20.10
2017,08,21,12,28,20.10
2017,08,21,12,29,20.20
2017,08,21,12,30,20.30
2017,08,21,12,31,20.40
2017,08,21,12,32,20.50
2017,08,21,12,33,20.60
2017,08,21,12,34,20.60
2017,08,21,12,35,20.60
2017,08,21,12,36,20.60
2017,08,21,12,37,20.50
2017,08,21,12,38,20.50
2017,08,21,12,39,20.60
2017,08,21,12,40,20.60
2017,08,21,12,41,20.60
2017,08,21,12,42,20.60
2017,08,21,12,43,20.60
2017,08,21,12,44,20.60
2017,08,21,12,45,20.60
2017,08,21,12,46,20.70
2017,08,21,12,47,20.70
2017,08,21,12,48,20.70
2017,08,21,12,49,20.70
2017,08,21,12,50,20.70
2017,08,21,12,51,20.70
2017,08,21,12,52,20.70
2017,08,21,12,53,20.60
2017,08,21,12,54,20.60
2017,08,21,12,55,20.60
2017,08,21,12,56,20.50
2017,08,21,12,57,20.50
2017,08,21,12,58,20.50
2017,08,21,12,59,20.50
2017,08,21,13,00,20.60
2017,08,21,13,01,20.60
2017,08,21,13,02,20.60
2017,08,21,13,03,20.60
2017,08,21,13,04,20.70
2017,08,21,13,05,20.70
2017,08,21,13,06,20.70
2017,08,21,13,07,20.70
2017,08,21,13,08,20.60
2017,08,21,13,09,20.60
2017,08,21,13,10,20.70
2017,08,21,13,11,20.80
2017,08,21,13,12,20.90
2017,08,21,13,13,21.00
2017,08,21,13,14,21.10
2017,08,21,13,15,21.20
2017,08,21,13,16,21.30
2017,08,21,13,17,21.40
2017,08,21,13,18,21.40
2017,08,21,13,19,21.50
2017,08,21,13,20,21.40
2017,08,21,13,21,21.40
2017,08,21,13,22,21.30
2017,08,21,13,23,21.30
2017,08,21,13,24,21.30
2017,08,21,13,25,21.20
2017,08,21,13,26,21.10
2017,08,21,13,27,21.00
2017,08,21,13,28,21.00
2017,08,21,13,29,20.90
2017,08,21,13,30,20.80
2017,08,21,13,31,20.80
2017,08,21,13,32,20.80
2017,08,21,13,33,20.70
2017,08,21,13,34,20.70
2017,08,21,13,35,20.70
2017,08,21,13,36,20.70
2017,08,21,13,37,20.70
2017,08,21,13,38,20.70
2017,08,21,13,39,20.70
2017,08,21,13,40,20.70
2017,08,21,13,41,20.70
2017,08,21,13,42,20.70
2017,08,21,13,43,20.70
2017,08,21,13,44,20.70
2017,08,21,13,45,20.70
2017,08,21,13,46,20.80
2017,08,21,13,47,20.90
2017,08,21,13,48,20.90
2017,08,21,13,49,20.90
2017,08,21,13,50,21.00
2017,08,21,13,51,21.00
2017,08,21,13,52,21.10
2017,08,21,13,53,21.20
2017,08,21,13,54,21.30
2017,08,21,13,55,21.30
2017,08,21,13,56,21.30
2017,08,21,13,57,21.30
2017,08,21,13,58,21.40
2017,08,21,13,59,21.50
2017,08,21,14,00,21.60
2017,08,21,14,01,21.70
2017,08,21,14,02,21.80
2017,08,21,14,03,21.90
2017,08,21,14,04,22.00
2017,08,21,14,05,22.10
2017,08,21,14,06,22.20
2017,08,21,14,07,22.20
2017,08,21,14,08,22.20
2017,08,21,14,09,22.30
2017,08,21,14,10,22.30
2017,08,21,14,11,22.20
2017,08,21,14,12,22.20
2017,08,21,14,13,22.20
2017,08,21,14,14,22.10
2017,08,21,14,15,22.10
2017,08,21,14,16,22.10
2017,08,21,14,17,22.00
2017,08,21,14,18,22.00
2017,08,21,14,19,22.10
2017,08,21,14,20,22.10
2017,08,21,14,21,22.20
2017,08,21,14,22,22.20
2017,08,21,14,23,22.30
2017,08,21,14,24,22.30
2017,08,21,14,25,22.30
2017,08,21,14,26,22.30
2017,08,21,14,27,22.30
2017,08,21,14,28,22.30
2017,08,21,14,29,22.40
2017,08,21,14,30,22.50
2017,08,21,14,31,22.50
2017,08,21,14,32,22.60
2017,08,21,14,33,22.70
2017,08,21,14,34,22.80
2017,08,21,14,35,22.80
2017,08,21,14,36,22.90
2017,08,21,14,37,23.00
2017,08,21,14,38,23.00
2017,08,21,14,39,23.10
2017,08,21,14,40,23.10
2017,08,21,14,41,23.10
2017,08,21,14,42,23.10
2017,08,21,14,43,23.10
2017,08,21,14,44,23.10
2017,08,21,14,45,23.10
2017,08,21,14,46,23.10
2017,08,21,14,47,23.10
2017,08,21,14,48,23.10
2017,08,21,14,49,23.20
2017,08,21,14,50,23.20
2017,08,21,14,51,23.20
2017,08,21,14,52,23.20
2017,08,21,14,53,23.20
2017,08,21,14,54,23.20
2017,08,21,14,55,23.20
2017,08,21,14,56,23.30
2017,08,21,14,57,23.30
2017,08,21,14,58,23.40
2017,08,21,14,59,23.40
2017,08,21,15,00,23.40
2017,08,21,15,01,23.50
2017,08,21,15,02,23.50
2017,08,21,15,03,23.50
2017,08,21,15,04,23.60
2017,08,21,15,05,23.60
2017,08,21,15,06,23.60
2017,08,21,15,07,23.60
2017,08,21,15,08,23.70
2017,08,21,15,09,23.70
2017,08,21,15,10,23.80
2017,08,21,15,11,23.80
2017,08,21,15,12,23.80
2017,08,21,15,13,23.80
2017,08,21,15,14,23.80
2017,08,21,15,15,23.80
2017,08,21,15,16,23.80
2017,08,21,15,17,23.80
2017,08,21,15,18,23.70
2017,08,21,15,19,23.70
2017,08,21,15,20,23.70
2017,08,21,15,21,23.70
2017,08,21,15,22,23.80
2017,08,21,15,23,23.80
2017,08,21,15,24,23.80
2017,08,21,15,25,23.70
2017,08,21,15,26,23.70
2017,08,21,15,27,23.70
2017,08,21,15,28,23.70
2017,08,21,15,29,23.70
2017,08,21,15,30,23.70
2017,08,21,15,31,23.70
2017,08,21,15,32,23.80
2017,08,21,15,33,23.80
2017,08,21,15,34,23.80
2017,08,21,15,35,23.90
2017,08,21,15,36,23.90
2017,08,21,15,37,23.90
2017,08,21,15,38,24.00
2017,08,21,15,39,24.00
2017,08,21,15,40,24.10
2017,08,21,15,41,24.10
2017,08,21,15,42,24.10
2017,08,21,15,43,24.20
2017,08,21,15,44,24.20
2017,08,21,15,45,24.20
2017,08,21,15,46,24.30
2017,08,21,15,47,24.30
2017,08,21,15,48,24.30
2017,08,21,15,49,24.40
2017,08,21,15,50,24.40
2017,08,21,15,51,24.50
2017,08,21,15,52,24.50
2017,08,21,15,53,24.50
2017,08,21,15,54,24.50
2017,08,21,15,55,24.60
2017,08,21,15,56,24.50
2017,08,21,15,57,24.50
2017,08,21,15,58,24.40
2017,08,21,15,59,24.40
2017,08,21,16,00,24.40
2017,08,21,16,01,24.40
2017,08,21,16,02,24.40
2017,08,21,16,03,24.40
2017,08,21,16,04,24.40
2017,08,21,16,05,24.30
2017,08,21,16,06,24.30
2017,08,21,16,07,24.30
2017,08,21,16,08,24.30
2017,08,21,16,09,24.40
2017,08,21,16,10,24.40
2017,08,21,16,11,24.40
2017,08,21,16,12,24.40
2017,08,21,16,13,24.40
2017,08,21,16,14,24.50
2017,08,21,16,15,24.50
2017,08,21,16,16,24.60
2017,08,21,16,17,24.70
2017,08,21,16,18,24.70
2017,08,21,16,19,24.70
2017,08,21,16,20,24.80
2017,08,21,16,21,24.80
2017,08,21,16,22,24.80
2017,08,21,16,23,24.80
2017,08,21,16,24,24.80
2017,08,21,16,25,24.80
2017,08,21,16,26,24.80
2017,08,21,16,27,24.80
2017,08,21,16,28,24.90
2017,08,21,16,29,25.00
2017,08,21,16,30,25.00
2017,08,21,16,31,25.10
2017,08,21,16,32,25.10
2017,08,21,16,33,25.10
2017,08,21,16,34,25.10
2017,08,21,16,35,25.10
2017,08,21,16,36,25.10
2017,08,21,16,37,25.10
2017,08,21,16,38,25.10
2017,08,21,16,39,25.10
2017,08,21,16,40,25.10
2017,08,21,16,41,25.10
2017,08,21,16,42,25.10
2017,08,21,16,43,25.00
2017,08,21,16,44,25.00
2017,08,21,16,45,24.90
2017,08,21,16,46,24.90
2017,08,21,16,47,24.90
2017,08,21,16,48,24.80
2017,08,21,16,49,24.80
2017,08,21,16,50,24.80
2017,08,21,16,51,24.80
2017,08,21,16,52,24.80
2017,08,21,16,53,24.80
2017,08,21,16,54,24.80
2017,08,21,16,55,24.80
2017,08,21,16,56,24.80
2017,08,21,16,57,24.80
2017,08,21,16,58,24.80
2017,08,21,16,59,24.80
2017,08,21,17,00,24.90
2017,08,21,17,01,24.90
2017,08,21,17,02,24.90
2017,08,21,17,03,24.90
2017,08,21,17,04,24.90
2017,08,21,17,05,25.00
2017,08,21,17,06,25.00
2017,08,21,17,07,25.00
2017,08,21,17,08,25.00
2017,08,21,17,09,25.10
2017,08,21,17,10,25.10
2017,08,21,17,11,25.10
2017,08,21,17,12,25.10
2017,08,21,17,13,25.10
2017,08,21,17,14,25.20
2017,08,21,17,15,25.20
2017,08,21,17,16,25.20
2017,08,21,17,17,25.20
2017,08,21,17,18,25.20
2017,08,21,17,19,25.30